This demonstration page uses our WeatherBlox Daily Observations layout. Learn more.

Left ArrowRight Arrow

39.01783, -85.05884

Hourly Observations for July 16, 2021

Temp ( °F °C ) Dew Point ( °F °C ) Humidity (%) Winds ( mph kmh ) Pressure ( in mb ) Visibility ( mi km ) Precip ( " mm )
12:52 am 00:52 Mostly Cloudy 76 24.4 69 20.6 79 79 SSW 6 9 30.02 1017 10 16 0.00 0.00
1:52 am 01:52 Cloudy 74 23.3 69 20.6 85 85 SSW 6 9 30.01 1016 10 16 0.00 0.00
2:52 am 02:52 Mostly Cloudy 73 22.8 68 20 84 84 S 7 11 29.99 1016 10 16 0.00 0.00
3:52 am 03:52 Mostly Cloudy 73 22.8 68 20 84 84 SSW 8 13 29.99 1016 10 16 0.00 0.00
4:52 am 04:52 Mostly Cloudy 73 22.8 68 20 84 84 SSW 7 11 29.99 1016 10 16 0.00 0.00
5:52 am 05:52 Mostly Cloudy 73 22.8 68 20 84 84 SSW 6 9 30.00 1016 10 16 0.00 0.00
6:52 am 06:52 Mostly Cloudy 73 22.8 68 20 84 84 SSW 7 11 30.01 1016 8 13 0.00 0.00
7:52 am 07:52 Mostly Cloudy 75 23.9 69 20.6 82 82 SSW 7 11 30.02 1017 10 16 0.00 0.00
8:52 am 08:52 Mostly Cloudy 76 24.4 70 21.1 82 82 S 10 17 30.03 1017 10 16 0.00 0.00
9:52 am 09:52 Mostly Cloudy 78 25.6 70 21.1 76 76 SSW 9 15 30.03 1017 10 16 0.00 0.00
10:52 am 10:52 Mostly Cloudy 81 27.2 72 22.2 74 74 S 9 15 30.03 1017 10 16 0.00 0.00
11:52 am 11:52 Mostly Cloudy 82 27.8 71 21.7 69 69 SSW 8 13 30.04 1017 10 16 0.00 0.00
12:52 pm 12:52 Mostly Cloudy 85 29.4 71 21.7 63 63 S 10 17 30.01 1016 10 16 0.00 0.00
1:52 pm 13:52 Cloudy with Nearby Thunderstorms 82 27.8 71 21.7 69 69 SSW 14 22 30.00 1016 9 14 0.00 0.00
2:13 pm 14:13 Mostly Cloudy with Thunderstorms 81 27.2 69 20.6 67 67 W 35 56 30.02 1016 10 16 0.00 0.00
2:30 pm 14:30 Cloudy with Thunderstorms 73 22.8 68 20 84 84 NW 14 22 30.01 1016 9 14 0.00 0.00
2:39 pm 14:39 Cloudy with Strong Thunderstorms 72 22.2 68 20 87 87 WNW 14 22 30.02 1017 2 3 0.00 0.00
2:42 pm 14:42 Cloudy with Strong Thunderstorms 72 22.2 68 20 87 87 SW 20 31 30.04 1017 1 1 0.04 1.02
2:46 pm 14:46 Cloudy with Strong Thunderstorms 70 21 66 19 88 88 SSW 20 31 30.04 1017 1 1 0.14 3.56
2:52 pm 14:52 Cloudy with Strong Thunderstorms 70 21 66 19 88 88 S 14 22 30.03 1017 3 5 0.00 0.00
3:02 pm 15:02 Cloudy with Thunderstorms 70 21.1 66 18.9 87 87 SSW 12 19 30.03 1017 6 10 0.08 2.03
3:15 pm 15:15 Cloudy with Nearby Thunderstorms 71 21.7 66 18.9 84 84 SW 8 13 30.01 1016 10 16 0.09 2.29
3:25 pm 15:25 Cloudy 71 21.7 67 19.4 87 87 SW 6 9 30.00 1016 10 16 0.09 2.29
3:52 pm 15:52 Cloudy with Light Rain 72 22.2 68 20 87 87 Calm 29.98 1015 10 16 0.09 2.29
4:52 pm 16:52 Cloudy 76 24.4 70 21.1 82 82 S 5 7 29.97 1015 10 16 0.00 0.00
5:52 pm 17:52 Mostly Cloudy 81 27.2 73 22.8 77 77 ESE 9 15 29.95 1014 10 16 0.00 0.00
6:52 pm 18:52 Cloudy 80 26.7 70 21.1 71 71 S 8 13 29.95 1014 10 16 0.00 0.00
6:58 pm 18:58 Cloudy with Nearby Thunderstorms 79 26.1 70 21.1 74 74 S 7 11 29.95 1014 10 16 0.00 0.00
7:33 pm 19:33 Cloudy 79 26.1 68 20 69 69 SSW 3 6 29.94 1014 10 16 0.00 0.00
7:52 pm 19:52 Cloudy 78 25.6 69 20.6 74 74 S 12 19 29.95 1014 10 16 0.00 0.00
8:52 pm 20:52 Cloudy 76 24.4 69 20.6 79 79 S 7 11 29.95 1014 10 16 0.00 0.00
9:23 pm 21:23 Cloudy 75 23.9 68 20 79 79 WNW 17 28 29.98 1015 10 16 0.00 0.00
9:34 pm 21:34 Cloudy 74 23.3 67 19.4 79 79 NNW 9 15 29.98 1015 10 16 0.00 0.00
9:52 pm 21:52 Cloudy 73 22.8 67 19.4 81 81 NNW 7 11 29.98 1015 10 16 0.00 0.00
10:41 pm 22:41 Mostly Cloudy 73 22.8 67 19.4 81 81 Calm 29.98 1015 10 16 0.00 0.00
10:52 pm 22:52 Mostly Cloudy with Light Rain 73 22.8 68 20 84 84 E 5 7 29.97 1015 10 16 0.00 0.00
11:14 pm 23:14 Cloudy with Thunderstorms 72 22.2 68 20 87 87 VRB 5 7 29.98 1015 10 16 0.00 0.00
11:23 pm 23:23 Cloudy with Strong Thunderstorms 72 22.2 68 20 87 87 WNW 12 19 30.00 1016 2 2 0.00 0.00
11:28 pm 23:28 Cloudy with Strong Thunderstorms 71 21.7 68 20 90 90 W 7 11 30.00 1016 1 1 0.17 4.32
11:42 pm 23:42 Cloudy with Thunderstorms 70 21.1 68 20 93 93 Calm 29.99 1016 6 10 0.52 13.21
11:52 pm 23:52 Cloudy with Thunderstorms 70 21.1 67 19.4 90 90 Calm 29.98 1015 6 10 0.54 13.72

Powered by AerisWeather